Weather History for Sioux City, IA

Change the Weather History Date:

Wednesday, March 21, 2012

  Actual Average Record
Temperature  
Mean Temperature 57 °F 39 °F  
Max Temperature 66 °F 50 °F 85 °F (1910)
Min Temperature 48 °F 27 °F -2 °F (1974)
Degree Days  
Heating Degree Days 8 26  
Month to date heating degree days 328 645  
Since 1 July heating degree days 5108 5939  
Cooling Degree Days 0 0  
Month to date cooling degree days 21 0  
Year to date cooling degree days 21 0  
Growing Degree Days 6 (Base 50)    
Moisture  
Dew Point 52 °F    
Average Humidity 84    
Maximum Humidity 100    
Minimum Humidity 67    
Precipitation  
Precipitation 0.11 in 0.07 in 0.38 in (1892)
Month to date precipitation 0.41 1.19  
Year to date precipitation 3.18 2.48  
Snow  
Snow 0.00 in 0.20 in 3.80 in (1892)
Month to date snowfall T 4.8  
Since 1 July snowfall 18.3 31.3  
Snow Depth 0.00 in    
Sea Level Pressure  
Sea Level Pressure 29.94 in    
Wind  
Wind Speed 8 mph (NNE)    
Max Wind Speed 14 mph    
Max Gust Speed 18 mph    
Visibility 6 miles    
Events Rain    
T = Trace of Precipitation, MM = Missing Value Source: NWS Daily Summary

Daily Weather History Graph

Daily Weather History Graph

Search for Another Location

Airport:

Trip Planner

Search our weather history database for the weather conditions in past years. The results will help you decide how hot, cold, wet, or windy it might be!

Date:

Astronomy

Mar. 21, 2012 Rise Set
Actual Time 7:26 AM CDT 7:39 PM CDT
Civil Twilight 6:58 AM CDT 8:07 PM CDT
Nautical Twilight 6:25 AM CDT 8:40 PM CDT
Astronomical Twilight 5:51 AM CDT 9:14 PM CDT
Moon 6:38 AM CDT (3/21) 7:07 PM CDT (3/21)
Length of Visible Light 13h 09m
Length of Day
12h 13m
Waning Crescent, 1% of the Moon is Illuminated
Mar 21
Waning Crescent
Mar 22
New
Mar 30
First Quarter
Apr 6
Full
Apr 13
Last Quarter

Hourly Weather History & Observations

Time (CDT) Temp. Dew Point Humidity Pressure Visibility Wind Dir Wind Speed Gust Speed Precip Events Conditions
12:52 AM 54.0 °F 52.0 °F 93% 29.88 in 10.0 mi Calm Calm - N/A   Overcast
1:02 AM 53.6 °F 51.8 °F 94% 29.88 in 7.0 mi Calm Calm - 0.00 in Rain Light Rain
1:52 AM 53.1 °F 53.1 °F 100% 29.89 in 5.0 mi NW 6.9 mph - 0.03 in Rain Light Rain
2:52 AM 52.0 °F 51.1 °F 97% 29.88 in 5.0 mi NNW 6.9 mph - 0.00 in   Overcast
3:52 AM 52.0 °F 51.1 °F 97% 29.88 in 5.0 mi NW 6.9 mph - N/A   Overcast
4:52 AM 51.1 °F 50.0 °F 96% 29.89 in 5.0 mi WNW 6.9 mph - N/A   Overcast
5:35 AM 50.0 °F 48.2 °F 94% 29.89 in 2.5 mi NNW 9.2 mph - 0.00 in Rain Light Rain
5:52 AM 50.0 °F 48.9 °F 96% 29.91 in 2.5 mi North 5.8 mph - 0.01 in   Overcast
6:30 AM 50.0 °F 48.2 °F 94% 29.88 in 3.0 mi NNE 6.9 mph - N/A   Overcast
6:52 AM 50.0 °F 48.0 °F 93% 29.91 in 6.0 mi Calm Calm - N/A   Overcast
7:34 AM 48.2 °F 48.2 °F 100% 29.95 in 5.0 mi WNW 4.6 mph - N/A   Mostly Cloudy
7:52 AM 50.0 °F 48.9 °F 96% 29.97 in 5.0 mi NNW 5.8 mph - N/A   Overcast
8:34 AM 50.0 °F 48.2 °F 94% 29.98 in 1.5 mi North 5.8 mph - N/A   Overcast
8:52 AM 50.0 °F 48.9 °F 96% 30.00 in 1.5 mi NNW 3.5 mph - 0.01 in   Overcast
9:52 AM 51.1 °F 50.0 °F 96% 29.99 in 1.5 mi North 5.8 mph - N/A   Overcast
9:59 AM 51.8 °F 50.0 °F 94% 29.98 in 2.0 mi North 4.6 mph - N/A   Overcast
10:09 AM 51.8 °F 50.0 °F 94% 29.98 in 2.0 mi NNW 5.8 mph - N/A   Overcast
10:52 AM 55.0 °F 52.0 °F 89% 29.99 in 2.5 mi North 6.9 mph - N/A   Overcast
11:52 AM 57.2 °F 53.6 °F 88% 29.98 in 7.0 mi North 5.8 mph - N/A   Overcast
12:52 PM 60.1 °F 53.1 °F 78% 29.97 in 8.0 mi NE 10.4 mph - N/A   Overcast
1:52 PM 61.0 °F 53.1 °F 75% 29.98 in 10.0 mi NNE 6.9 mph - N/A   Overcast
2:52 PM 64.0 °F 53.1 °F 67% 29.95 in 10.0 mi NNE 6.9 mph - N/A   Mostly Cloudy
3:08 PM 64.4 °F 53.6 °F 68% 29.95 in 10.0 mi Variable 5.8 mph - N/A   Mostly Cloudy
3:52 PM 64.9 °F 53.1 °F 65% 29.95 in 10.0 mi East 9.2 mph - N/A   Overcast
4:52 PM 64.9 °F 53.1 °F 65% 29.94 in 10.0 mi ENE 9.2 mph - N/A   Scattered Clouds
5:33 PM 64.4 °F 53.6 °F 68% 29.92 in 10.0 mi East 10.4 mph - N/A   Mostly Cloudy
5:52 PM 64.0 °F 55.0 °F 73% 29.93 in 10.0 mi East 11.5 mph - N/A   Mostly Cloudy
6:04 PM 64.4 °F 53.6 °F 68% 29.92 in 10.0 mi East 12.7 mph - N/A   Scattered Clouds
6:52 PM 63.0 °F 55.0 °F 75% 29.93 in 10.0 mi ENE 9.2 mph - N/A   Mostly Cloudy
7:52 PM 62.1 °F 55.9 °F 80% 29.94 in 10.0 mi ENE 10.4 mph - 0.00 in Rain Light Rain
8:52 PM 60.1 °F 57.9 °F 93% 29.94 in 6.0 mi East 9.2 mph - 0.03 in Rain Light Rain
9:52 PM 61.0 °F 59.0 °F 93% 29.94 in 10.0 mi ENE 10.4 mph - 0.01 in   Overcast
10:52 PM 61.0 °F 59.0 °F 93% 29.95 in 10.0 mi ENE 9.2 mph - N/A   Overcast
11:52 PM 60.1 °F 59.0 °F 96% 29.95 in 7.0 mi ENE 10.4 mph - 0.00 in Rain Light Rain